Wind_Speed
52 53 53 54 54 55 56 57 58 58 57 58 60 61 62 63 64 65 66 67 68 69 70 71 72 73 74 75 75 76 76 76 76 76 77 77 77 77
53 53 54 55 56 57 58 59 60 61 61 61 63 65 66 67 68 69 70 72 73 74 75 76 76 77 77 77 77 77 77 77 77 77 78 79 79 79
54 54 55 56 57 58 59 60 62 64 64 64 66 68 70 71 73 74 76 77 77 78 79 79 80 80 80 79 79 78 78 78 78 78 79 79 80 80
54 55 56 57 58 60 62 63 65 66 67 67 68 71 73 76 77 78 79 79 80 80 81 82 82 82 81 80 79 78 78 78 78 77 77 77 77 77
55 56 58 59 61 63 65 66 67 68 70 72 72 75 77 78 79 80 80 80 81 81 82 81 80 79 77 76 75 74 74 73 72 71 70 70 69 70
57 59 61 62 64 66 67 68 70 72 74 75 76 77 78 79 81 80 80 80 79 79 77 75 73 71 69 68 66 65 63 62 61 60 59 59 60 60
59 62 63 65 66 68 70 71 73 75 76 77 78 79 79 80 79 78 77 75 73 72 69 65 63 61 59 57 55 53 51 49 48 48 48 49 50 50
62 64 66 67 68 70 72 74 76 77 79 80 80 80 79 77 75 73 72 69 65 61 59 55 53 51 49 46 44 43 41 40 39 39 40 41 41 43
65 67 68 70 72 73 74 75 77 78 80 81 80 78 75 72 70 68 65 62 57 53 50 46 44 42 41 39 37 36 35 34 33 33 34 35 36 38
68 69 71 72 74 76 76 77 78 78 79 78 76 73 69 67 65 63 59 54 49 45 43 39 37 36 35 34 33 31 30 30 30 30 30 31 32 33
69 71 73 74 76 77 78 79 78 76 75 73 70 68 65 62 60 56 51 46 41 37 36 34 32 31 30 30 29 28 27 26 26 27 27 27 27 28
71 73 74 76 77 78 79 78 76 73 71 68 66 63 60 56 53 49 45 40 35 32 31 30 29 27 25 26 26 24 24 23 23 23 24 24 25 26
73 74 76 77 78 77 77 75 73 70 67 65 61 57 53 50 46 42 38 34 31 28 28 27 25 24 23 23 23 22 21 20 20 21 22 23 23 24
75 76 77 77 76 75 73 71 69 67 64 60 55 51 47 43 40 36 33 30 28 26 26 24 23 22 21 21 21 20 19 18 18 18 19 20 21 22
77 78 77 75 73 70 68 67 65 63 59 54 49 45 42 38 35 32 29 27 25 24 23 22 20 20 19 19 18 18 17 17 16 16 17 18 19 20
78 76 74 71 68 66 65 63 61 57 53 48 44 41 37 34 31 28 26 24 23 23 21 19 19 18 17 17 16 16 15 14 15 15 15 16 17 19
76 73 69 67 65 63 61 59 56 52 47 44 39 36 33 30 28 26 24 22 22 22 20 18 17 17 16 15 15 15 14 13 13 13 14 14 15 17
73 70 67 65 64 61 58 55 51 47 42 39 35 32 29 27 25 24 22 21 21 20 19 18 16 16 15 15 14 14 14 13 13 13 13 13 14 15
71 68 65 63 60 58 55 51 46 42 37 34 31 28 26 24 23 22 21 20 20 19 18 17 16 15 15 14 14 14 13 13 13 13 13 13 14 14
67 64 62 60 57 54 51 46 41 36 33 30 27 25 23 22 21 20 20 19 19 18 17 16 15 14 14 14 14 13 13 12 12 12 12 12 13 14
63 60 58 55 52 49 44 40 35 32 29 27 24 23 21 20 20 19 18 18 18 17 16 15 14 14 14 13 13 13 13 12 12 12 12 12 12 13
58 55 53 50 46 42 38 34 31 28 26 24 22 21 20 19 19 18 17 17 17 16 16 15 14 14 13 13 13 13 13 12 12 12 11 11 11 11
53 51 48 44 40 37 33 30 27 25 24 22 21 20 19 19 18 17 17 16 16 16 15 15 14 13 13 13 13 13 13 12 12 12 11 11 10 10
Wind_Direction
298 298 298 298 298 297 297 297 296 295 294 294 294 293 292 292 291 290 289 288 287 285 284 282 281 280 279 278 277 275 274 272 270 268 266 264 263 261
299 299 299 299 298 298 298 298 297 297 297 296 295 295 294 293 292 291 290 289 288 287 286 284 283 281 280 278 277 275 273 272 270 268 266 265 263 262
300 300 300 300 300 300 299 299 299 299 298 298 297 296 296 295 294 294 293 291 290 289 288 286 285 284 282 280 278 276 274 272 270 269 267 265 264 262
301 301 301 301 301 301 300 300 300 299 299 299 298 297 297 296 295 295 294 293 292 291 290 289 287 285 283 281 279 277 275 273 271 270 268 266 264 261
302 302 302 302 302 302 301 301 300 300 300 299 299 298 298 297 296 295 295 294 293 292 291 290 288 286 284 282 279 277 275 273 271 269 267 264 262 260
302 303 303 303 303 302 302 301 301 301 301 300 300 300 299 298 297 296 295 295 294 293 291 290 288 286 284 282 280 278 275 273 270 267 263 261 258 257
303 303 303 303 304 303 302 302 302 302 301 301 301 301 300 299 298 297 296 296 295 294 292 290 288 286 284 282 280 277 274 271 267 264 261 259 256 254
303 303 304 304 303 303 303 303 303 303 302 302 302 302 301 300 299 299 298 298 296 294 291 289 287 285 284 281 279 275 272 269 265 262 259 257 255 253
304 304 304 304 304 303 304 304 303 304 303 303 303 303 302 301 301 300 300 299 297 293 290 289 286 284 282 280 278 275 271 268 266 262 259 257 254 252
305 305 305 305 305 304 304 304 304 304 303 303 304 304 303 302 302 301 300 298 295 292 290 288 285 283 281 279 277 274 271 267 264 262 260 257 253 250
305 306 306 305 305 304 305 305 305 304 303 303 304 303 302 302 302 301 299 297 294 291 289 288 285 283 279 277 275 274 271 268 264 261 258 255 251 248
306 306 306 306 306 306 305 305 305 305 304 304 303 302 301 301 300 299 298 295 292 290 288 288 286 281 278 278 276 273 271 268 264 260 255 252 249 247
306 307 307 307 307 306 306 306 306 305 305 304 303 302 300 299 298 297 295 292 291 290 289 288 285 281 279 277 277 275 272 268 264 258 254 251 248 246
307 307 307 307 307 306 306 306 306 306 305 304 303 301 299 298 296 294 291 289 289 289 289 287 283 279 278 276 275 274 272 268 264 257 253 250 247 244
308 308 308 308 307 307 307 307 307 306 305 303 302 300 298 296 293 291 288 286 286 286 287 285 281 278 276 274 273 272 270 267 263 257 253 250 247 244
308 309 308 308 307 307 307 307 307 305 304 302 300 298 296 293 290 287 285 283 284 284 284 281 278 275 274 272 270 268 267 266 263 258 254 251 247 244
309 309 308 308 307 307 307 307 306 304 302 300 298 296 293 290 287 285 282 281 282 283 282 278 274 272 270 268 266 264 263 263 262 259 255 252 247 243
309 309 308 308 308 307 307 307 305 302 300 298 295 293 290 287 285 282 279 279 281 281 279 275 271 268 266 264 263 261 260 260 259 258 256 254 248 243
309 308 308 308 307 307 307 305 303 300 297 295 292 290 287 284 283 280 277 277 279 278 275 272 269 266 262 260 260 259 258 258 257 256 255 252 248 243
309 308 308 307 307 307 306 304 300 297 294 292 290 287 284 282 281 278 275 275 276 274 271 269 267 264 261 259 258 256 255 255 255 255 255 253 248 244
309 309 308 308 307 306 304 302 298 294 292 289 286 283 280 279 278 277 274 273 272 271 268 266 263 260 259 258 258 256 254 254 255 254 253 251 247 241
309 309 309 309 307 306 303 300 296 293 290 286 282 280 278 276 275 273 272 271 269 268 266 264 262 257 255 255 255 254 254 254 253 251 249 246 242 234
309 309 309 309 307 305 302 298 294 290 288 283 279 277 274 272 271 269 269 268 267 265 263 262 260 255 253 253 252 251 250 249 248 246 242 237 232 227
Height
5669 5664 5659 5654 5649 5643 5638 5633 5629 5626 5623 5616 5609 5603 5597 5592 5586 5581 5576 5572 5567 5561 5557 5553 5549 5545 5542 5539 5536 5534 5533 5532 5531 5532 5533 5534 5536 5539
5656 5651 5645 5640 5635 5629 5623 5618 5612 5607 5604 5600 5592 5585 5578 5573 5567 5561 5556 5551 5545 5540 5534 5529 5525 5521 5517 5514 5511 5509 5507 5506 5506 5506 5507 5508 5511 5513
5643 5638 5632 5626 5620 5614 5608 5602 5596 5590 5586 5582 5574 5566 5559 5552 5546 5540 5533 5527 5522 5515 5509 5503 5499 5494 5491 5488 5485 5483 5481 5480 5479 5480 5480 5482 5484 5487
5630 5624 5618 5612 5606 5599 5593 5586 5579 5572 5566 5563 5557 5548 5540 5531 5524 5517 5510 5503 5496 5490 5483 5476 5471 5466 5462 5459 5457 5455 5453 5452 5452 5453 5454 5456 5457 5459
5617 5611 5604 5598 5591 5584 5577 5570 5562 5555 5547 5541 5536 5528 5519 5510 5502 5495 5487 5479 5472 5464 5457 5450 5444 5439 5435 5432 5429 5427 5426 5426 5426 5426 5427 5429 5431 5434
5603 5597 5590 5583 5575 5568 5560 5552 5544 5536 5528 5520 5514 5507 5498 5488 5478 5471 5464 5456 5448 5440 5432 5425 5419 5414 5410 5407 5404 5402 5401 5401 5401 5403 5404 5406 5409 5412
5589 5582 5575 5567 5559 5550 5542 5534 5525 5516 5508 5499 5492 5484 5476 5465 5455 5446 5440 5433 5426 5416 5410 5404 5398 5394 5390 5386 5384 5382 5382 5382 5383 5384 5386 5388 5391 5394
5575 5567 5559 5551 5542 5534 5525 5515 5505 5495 5486 5477 5469 5461 5452 5442 5433 5425 5417 5411 5406 5398 5390 5386 5380 5376 5373 5371 5369 5367 5367 5368 5369 5370 5372 5374 5376 5379
5558 5550 5542 5533 5524 5515 5506 5497 5486 5474 5464 5454 5446 5438 5429 5421 5412 5405 5397 5391 5385 5379 5374 5371 5366 5363 5360 5358 5356 5355 5355 5356 5357 5358 5360 5362 5364 5367
5542 5533 5524 5515 5504 5494 5486 5477 5467 5456 5444 5433 5425 5417 5409 5400 5392 5386 5379 5374 5370 5365 5360 5358 5355 5352 5349 5347 5346 5345 5346 5346 5347 5349 5350 5352 5354 5356
5525 5515 5505 5496 5486 5474 5465 5457 5448 5437 5425 5415 5406 5398 5391 5383 5375 5369 5364 5360 5357 5354 5349 5347 5345 5342 5340 5338 5337 5337 5337 5338 5339 5340 5341 5343 5345 5347
5508 5498 5487 5476 5465 5454 5443 5434 5425 5416 5407 5398 5390 5382 5374 5368 5361 5355 5351 5348 5345 5343 5340 5338 5335 5333 5333 5331 5330 5330 5330 5331 5331 5332 5333 5335 5337 5340
5489 5480 5469 5457 5446 5434 5423 5413 5404 5396 5388 5380 5373 5366 5360 5354 5349 5344 5340 5338 5336 5334 5332 5330 5328 5326 5325 5324 5323 5323 5323 5324 5324 5325 5326 5328 5330 5333
5470 5460 5449 5438 5426 5415 5404 5394 5385 5377 5370 5363 5357 5351 5346 5341 5337 5334 5331 5329 5327 5326 5324 5322 5321 5319 5318 5318 5317 5317 5317 5318 5318 5319 5321 5322 5324 5326
5449 5440 5429 5418 5407 5397 5387 5377 5368 5360 5354 5348 5342 5338 5333 5330 5327 5324 5322 5321 5319 5318 5317 5315 5314 5313 5313 5312 5312 5311 5312 5312 5313 5314 5315 5317 5318 5320
5430 5421 5410 5400 5389 5380 5371 5362 5353 5345 5339 5334 5329 5326 5322 5319 5317 5315 5314 5313 5312 5311 5310 5309 5308 5308 5307 5307 5307 5307 5307 5307 5308 5309 5310 5311 5313 5315
5410 5401 5392 5383 5374 5365 5356 5347 5339 5332 5326 5322 5318 5315 5312 5310 5308 5307 5306 5306 5305 5304 5303 5303 5303 5302 5302 5302 5302 5302 5303 5303 5304 5304 5305 5307 5308 5310
5390 5382 5374 5365 5356 5348 5340 5333 5325 5319 5314 5310 5308 5305 5303 5302 5301 5300 5299 5299 5298 5298 5297 5297 5297 5297 5297 5297 5298 5298 5298 5299 5300 5300 5301 5302 5304 5305
5372 5364 5356 5348 5340 5332 5325 5318 5312 5307 5303 5300 5298 5296 5295 5294 5293 5293 5292 5292 5292 5291 5291 5291 5291 5292 5292 5292 5293 5294 5294 5295 5296 5296 5297 5298 5299 5301
5355 5347 5339 5332 5324 5317 5310 5304 5300 5296 5293 5291 5289 5288 5287 5287 5286 5286 5285 5285 5285 5285 5285 5286 5286 5286 5287 5288 5288 5289 5290 5291 5292 5292 5293 5294 5295 5297
5339 5331 5324 5316 5310 5303 5297 5292 5289 5286 5284 5282 5281 5280 5280 5280 5279 5279 5279 5279 5279 5279 5280 5280 5281 5281 5282 5283 5284 5285 5286 5287 5288 5289 5290 5291 5292 5293
5324 5317 5309 5303 5296 5291 5286 5282 5279 5277 5275 5274 5273 5273 5273 5273 5273 5273 5273 5273 5273 5274 5274 5275 5276 5277 5277 5278 5279 5280 5282 5283 5284 5285 5286 5288 5289 5290
5310 5304 5297 5291 5285 5280 5276 5273 5271 5269 5267 5267 5266 5266 5266 5266 5266 5267 5267 5267 5268 5268 5269 5270 5271 5272 5273 5274 5275 5276 5277 5279 5280 5282 5283 5284 5286 5288